TimeEDT,TemperatureF,Dew PointF,Humidity,Sea Level PressureIn,VisibilityMPH,Wind Direction,Wind SpeedMPH,Gust SpeedMPH,PrecipitationIn,Events,Conditions,WindDirDegrees,DateUTC
12:15 AM,69.8,68.0,94,30.06,10.0,South,6.9,-,N/A,,Scattered Clouds,180,2012-10-15 04:15:00
12:35 AM,69.8,68.0,94,30.05,10.0,South,5.8,-,N/A,,Mostly Cloudy,170,2012-10-15 04:35:00
12:55 AM,69.8,68.0,94,30.05,10.0,SSE,6.9,-,N/A,,Scattered Clouds,160,2012-10-15 04:55:00
1:15 AM,69.8,68.0,94,30.05,10.0,South,6.9,-,N/A,,Scattered Clouds,170,2012-10-15 05:15:00
1:35 AM,69.8,68.0,94,30.04,10.0,South,6.9,-,N/A,,Scattered Clouds,190,2012-10-15 05:35:00
1:55 AM,69.8,68.0,94,30.03,10.0,SSE,5.8,-,N/A,,Scattered Clouds,160,2012-10-15 05:55:00
2:15 AM,69.8,68.0,94,30.03,10.0,South,6.9,-,N/A,,Scattered Clouds,170,2012-10-15 06:15:00
2:35 AM,69.8,68.0,94,30.02,10.0,SSE,5.8,-,N/A,,Scattered Clouds,160,2012-10-15 06:35:00
2:55 AM,69.8,68.0,94,30.02,10.0,South,5.8,-,N/A,,Mostly Cloudy,180,2012-10-15 06:55:00
3:15 AM,69.8,68.0,94,30.02,10.0,SSW,5.8,-,N/A,,Overcast,200,2012-10-15 07:15:00
3:35 AM,69.8,68.0,94,30.00,10.0,South,5.8,-,N/A,,Overcast,170,2012-10-15 07:35:00
4:15 AM,69.8,68.0,94,29.98,10.0,South,5.8,-,N/A,,Mostly Cloudy,170,2012-10-15 08:15:00
4:35 AM,69.8,68.0,94,29.97,10.0,South,5.8,-,N/A,,Scattered Clouds,180,2012-10-15 08:35:00
4:55 AM,68.0,68.0,100,29.97,10.0,South,5.8,-,N/A,,Scattered Clouds,190,2012-10-15 08:55:00
5:15 AM,68.0,68.0,100,29.96,10.0,South,6.9,-,N/A,,Clear,170,2012-10-15 09:15:00
5:35 AM,68.0,68.0,100,29.96,10.0,South,8.1,-,N/A,,Clear,180,2012-10-15 09:35:00
5:55 AM,68.0,68.0,100,29.95,10.0,South,6.9,-,N/A,,Clear,170,2012-10-15 09:55:00
6:15 AM,68.0,68.0,100,29.95,10.0,South,8.1,-,N/A,,Clear,170,2012-10-15 10:15:00
6:35 AM,68.0,68.0,100,29.95,10.0,South,6.9,-,N/A,,Clear,180,2012-10-15 10:35:00
6:55 AM,68.0,68.0,100,29.95,10.0,South,8.1,-,N/A,,Clear,170,2012-10-15 10:55:00
7:15 AM,68.0,68.0,100,29.94,10.0,South,5.8,-,N/A,,Clear,180,2012-10-15 11:15:00
7:35 AM,68.0,68.0,100,29.95,10.0,South,6.9,-,N/A,,Clear,180,2012-10-15 11:35:00
7:55 AM,68.0,68.0,100,29.95,10.0,South,6.9,-,N/A,,Clear,170,2012-10-15 11:55:00
8:15 AM,68.0,68.0,100,29.95,10.0,South,6.9,-,N/A,,Clear,180,2012-10-15 12:15:00
8:35 AM,68.0,68.0,100,29.94,10.0,South,5.8,-,N/A,,Clear,180,2012-10-15 12:35:00
8:55 AM,68.0,68.0,100,29.94,10.0,South,4.6,-,N/A,,Clear,170,2012-10-15 12:55:00
9:15 AM,68.0,68.0,100,29.95,10.0,South,5.8,-,N/A,,Clear,180,2012-10-15 13:15:00
9:35 AM,69.8,66.2,88,29.95,10.0,South,5.8,-,N/A,,Clear,190,2012-10-15 13:35:00
9:55 AM,69.8,68.0,94,29.95,10.0,South,6.9,-,N/A,,Clear,190,2012-10-15 13:55:00
10:35 AM,71.6,68.0,88,29.94,10.0,SSW,9.2,-,N/A,,Scattered Clouds,200,2012-10-15 14:35:00
10:55 AM,71.6,68.0,88,29.94,10.0,SSW,8.1,-,N/A,Rain,Light Rain,210,2012-10-15 14:55:00
11:15 AM,71.6,69.8,94,29.92,10.0,SSW,8.1,-,N/A,,Scattered Clouds,210,2012-10-15 15:15:00
11:35 AM,71.6,69.8,94,29.92,10.0,SW,4.6,-,N/A,,Scattered Clouds,230,2012-10-15 15:35:00
11:55 AM,71.6,69.8,94,29.90,10.0,SW,4.6,-,N/A,,Scattered Clouds,220,2012-10-15 15:55:00
12:35 PM,73.4,68.0,83,29.90,10.0,SW,6.9,16.1,N/A,,Scattered Clouds,230,2012-10-15 16:35:00
12:55 PM,75.2,68.0,78,29.89,10.0,SW,11.5,-,N/A,,Mostly Cloudy,220,2012-10-15 16:55:00
1:15 PM,73.4,68.0,83,29.88,10.0,SW,9.2,-,N/A,,Mostly Cloudy,220,2012-10-15 17:15:00
1:35 PM,73.4,68.0,83,29.88,10.0,SW,12.7,18.4,N/A,,Mostly Cloudy,230,2012-10-15 17:35:00
1:55 PM,73.4,68.0,83,29.86,10.0,SW,6.9,-,N/A,,Mostly Cloudy,220,2012-10-15 17:55:00
2:15 PM,77.0,68.0,74,29.85,10.0,SW,11.5,-,N/A,,Scattered Clouds,220,2012-10-15 18:15:00
2:35 PM,77.0,68.0,74,29.84,10.0,WSW,6.9,-,N/A,,Mostly Cloudy,250,2012-10-15 18:35:00
2:55 PM,77.0,66.2,69,29.82,10.0,SW,12.7,19.6,N/A,,Mostly Cloudy,230,2012-10-15 18:55:00
3:15 PM,77.0,68.0,74,29.81,10.0,West,4.6,-,N/A,,Mostly Cloudy,260,2012-10-15 19:15:00
3:35 PM,77.0,66.2,69,29.80,10.0,WSW,9.2,-,N/A,,Scattered Clouds,250,2012-10-15 19:35:00
3:55 PM,77.0,66.2,69,29.80,10.0,West,8.1,17.3,N/A,,Scattered Clouds,260,2012-10-15 19:55:00
4:15 PM,77.0,66.2,69,29.80,10.0,West,6.9,-,N/A,,Scattered Clouds,270,2012-10-15 20:15:00
4:35 PM,78.8,66.2,65,29.79,10.0,SW,11.5,16.1,N/A,,Scattered Clouds,230,2012-10-15 20:35:00
4:55 PM,78.8,64.4,61,29.79,10.0,West,10.4,-,N/A,,Scattered Clouds,270,2012-10-15 20:55:00
5:15 PM,78.8,62.6,57,29.78,10.0,West,8.1,16.1,N/A,,Clear,260,2012-10-15 21:15:00
5:35 PM,80.6,60.8,51,29.78,10.0,West,8.1,17.3,N/A,,Clear,270,2012-10-15 21:35:00
5:55 PM,80.6,53.6,39,29.78,10.0,West,11.5,17.3,N/A,,Clear,270,2012-10-15 21:55:00
6:15 PM,78.8,53.6,42,29.77,10.0,West,9.2,-,N/A,,Clear,270,2012-10-15 22:15:00
6:35 PM,78.8,53.6,42,29.77,10.0,WNW,10.4,-,N/A,,Clear,290,2012-10-15 22:35:00
6:55 PM,77.0,53.6,44,29.78,10.0,West,6.9,-,N/A,,Clear,280,2012-10-15 22:55:00
7:15 PM,75.2,55.4,50,29.79,10.0,West,6.9,-,N/A,,Clear,280,2012-10-15 23:15:00
7:35 PM,73.4,55.4,53,29.80,10.0,West,4.6,-,N/A,,Clear,270,2012-10-15 23:35:00
7:55 PM,71.6,55.4,57,29.80,10.0,West,8.1,-,N/A,,Clear,280,2012-10-15 23:55:00
8:15 PM,71.6,55.4,57,29.82,10.0,NW,6.9,-,N/A,,Clear,320,2012-10-16 00:15:00
8:35 PM,69.8,55.4,60,29.83,10.0,NNW,4.6,-,N/A,,Clear,330,2012-10-16 00:35:00
8:55 PM,68.0,55.4,64,29.84,10.0,NNW,3.5,-,N/A,,Clear,330,2012-10-16 00:55:00
9:15 PM,68.0,51.8,56,29.85,10.0,NNW,6.9,-,N/A,,Clear,330,2012-10-16 01:15:00
9:35 PM,68.0,50.0,52,29.86,10.0,NNW,6.9,-,N/A,,Clear,330,2012-10-16 01:35:00
10:15 PM,64.4,50.0,59,29.87,10.0,NNW,5.8,-,N/A,,Clear,330,2012-10-16 02:15:00
10:35 PM,64.4,48.2,56,29.87,10.0,NNW,5.8,-,N/A,,Clear,330,2012-10-16 02:35:00
10:55 PM,62.6,50.0,63,29.88,10.0,NNW,5.8,-,N/A,,Clear,330,2012-10-16 02:55:00
11:15 PM,62.6,48.2,59,29.88,10.0,NNW,5.8,-,N/A,,Clear,330,2012-10-16 03:15:00
11:35 PM,62.6,46.4,55,29.88,10.0,NNW,5.8,-,N/A,,Clear,340,2012-10-16 03:35:00
11:55 PM,60.8,46.4,59,29.88,10.0,NNW,5.8,-,N/A,,Clear,340,2012-10-16 03:55:00